Location: Grums
(59.3529°N, 13.1129°E)
Time: 01:36:38
(UTC+01:00)

SEEDS - Pass Details

Date: 03 December 2021
Orbit: 584 x 600 km, 97.6° (Epoch: 27 January)

Event Time Altitude Azimuth Distance (km) Brightness Sun altitude
Rises 03:30:43 0° 24° (NNE) 2,829 ? -37.3°
Reaches altitude 10° 03:33:36 10° 45° (NE) 1,921 ? -36.9°
Enters shadow 03:34:42 14° 59° (ENE) 1,678 ? -36.8°
